Regional Weather Roundup
Issued by NWS Upton, NY

Current Version | Previous Version | Graphics & Text | Print | Product List | Glossary Off
Versions: 1 2 3 4 5 6 7 8 9 10 11 12 13 14 15 16 17 18 19 20 21 22 23 24 25 26 27 28 29 30 31 32

000
ASUS41 KOKX 220505
RWROKX

REGIONAL WEATHER ROUNDUP
NATIONAL WEATHER SERVICE NEW YORK NY
100 AM EDT WED OCT 22 2014

NOTE: "FAIR" INDICATES FEW OR NO CLOUDS BELOW 12,000 FEET WITH NO
SIGNIFICANT WEATHER AND/OR OBSTRUCTIONS TO VISIBILITY.

NYZ071-072-176-178-NJZ106-104-220600-
NEW YORK CITY METRO AREA


CITY           SKY/WX    TMP DP  RH WIND       PRES   REMARKS
CENTRAL PARK   MOCLDY    55  52  89 VRB6      29.93S
LAGUARDIA APRT MOCLDY    57  52  83 NE8       29.90S
KENNEDY INTL   CLOUDY    58  53  84 NE9       29.90S
NEWARK/LIBERTY CLOUDY    55  53  93 N12       29.91S
BRNX BOT. GARD   N/A     54  50  87 N2        29.91S
TETERBORO      CLOUDY    56  51  84 VRB3      29.90S
$$

NYZ177-179-078>081-220600-
LONG ISLAND NEW YORK

CITY           SKY/WX    TMP DP  RH WIND       PRES   REMARKS
FARMINGDALE    LGT RAIN  58  55  90 NE8       29.90S
ISLIP          CLOUDY    58  56  93 NE10      29.88F
SHIRLEY        CLOUDY    59  57  93 VRB5      29.90F
WESTHAMPTON    CLOUDY    60  57  89 NE10      29.91F
MONTAUK POINT    N/A     59  57  93 NE9G17    29.92F
$$

NYZ052-065-067-220600-
HUDSON VALLEY

CITY           SKY/WX    TMP DP  RH WIND       PRES   REMARKS
WHITE PLAINS   CLOUDY    55  51  86 NE8       29.90F
NEWBURGH       CLOUDY    52  52 100 VRB3      29.95F
MONTGOMERY     CLOUDY    52  50  93 N12       29.94F
POUGHKEEPSIE   CLOUDY    54  51  90 N6        29.95F
ALBANY         CLOUDY    50  47  89 N8        30.02S
$$

NJZ001-105-106-008-010-013-015-019>022-104-220600-
NEW JERSEY

CITY           SKY/WX    TMP DP  RH WIND       PRES   REMARKS
NEWARK/LIBERTY CLOUDY    55  53  93 N12       29.91S
TETERBORO      CLOUDY    56  51  84 VRB3      29.90S
CALDWELL       CLOUDY    53  50  89 NE5       29.92S
MORRISTOWN     MOCLDY    52  50  93 CALM      29.91S FOG
SOMERVILLE     PTCLDY    49  47  93 NW3       29.89S
SUSSEX         CLOUDY    55  50  83 NE8       29.93F
ANDOVER          N/A     52  50  93 NE6       29.92F
TRENTON        MOCLDY    54  49  83 N8        29.88S
MILLVILLE      LGT RAIN  57  54  89 NE8       29.84F
ATLANTIC CITY  MOCLDY    54  53  97 N5        29.84F
WRIGHTSTOWN    PTCLDY    54  53  95 N7        29.85F
TOMS RIVER     CLOUDY    55  54  94 NE5       29.86F
BELMAR         MOCLDY    55  50  82 N5        29.87S
$$

PAZ047>061-062-071-220600-
EASTERN PENNSYLVANIA

CITY           SKY/WX    TMP DP  RH WIND       PRES   REMARKS
PHILADELPHIA   CLOUDY    58  50  75 N9        29.87F
ALLENTOWN      PTCLDY    49  46  90 E5        29.90F
SCRANTON       CLOUDY    52  49  89 CALM      29.93F
$$

CTZ002-004>006-009-010-012-RIZ004-006-007-MAZ004-011-015-220600-
SOUTHERN NEW ENGLAND
 IN CT

CITY           SKY/WX    TMP DP  RH WIND       PRES   REMARKS
BRADLEY INTL   LGT RAIN  55  49  80 N12       29.96F
HARTFORD       CLOUDY    54  50  86 N10       29.95F
DANBURY        CLOUDY    55 N/A N/A NE5       29.94F
WTRBRY/OXFORD  CLOUDY    54  48  82 NE13      29.93F
BRIDGEPORT     LGT RAIN  56  53  90 NE13      29.91F
MERIDEN        CLOUDY    55  51  86 N7        29.94F
NEW HAVEN      CLOUDY    56  52  86 N9        29.92F
CHESTER        CLOUDY    55  54  94 NE5       29.93F
GROTON         PTCLDY    56  53  90 NE12      29.91F
WILLIMANTIC    CLOUDY    57  51  80 NE9       29.95F

 IN RI

CITY           SKY/WX    TMP DP  RH WIND       PRES   REMARKS
PROVIDENCE     CLOUDY    56  54  93 N9        29.96S
BLOCK ISLAND   CLOUDY    57  54  88 NE10G20   29.92F
WESTERLY       CLOUDY    57  54  89 N7        29.94S

 IN MA

CITY           SKY/WX    TMP DP  RH WIND       PRES   REMARKS
BOSTON         CLOUDY    53  51  93 N10       29.99S
WORCESTER      CLOUDY    48  48 100 NE13G20   29.98S FOG
WESTFIELD      CLOUDY    53  49  86 N13       29.98S
PROVINCETOWN   MOCLDY    55  52  88 CALM      29.96S
NANTUCKET      CLEAR     54  53  97 NE5       29.92F
$$

ANZ330-335-338-340-345-350-353-355-220600-
COASTAL MARINE OBSERVATIONS


STATION/POSITION TIME  SKY/WX   TEMP    WIND        PRES    VSBY  WAVE
                                AIR SEA DIR/SP/G                  HT/PER
                 (UTC)          (F)     (DEG/KT/KT) (MB)    (MI)  (FT/S)
NY HARB ENTRANCE NOT AVBL
4S FIRE IS       0500               64                N/A           3/ 7
20S FIRE ISLAND  0500            63 64   80/ 16/ 16 1011.1          3/ 7
23SW MTP         0500                                 N/A           3/ 7
HUDSON CANYON    0500            64 66   60/ 12/ 14 1010.6          4/ 7
EXECUTION ROCKS  0500            59 63   40/ 14/ 17   N/A
WESTERN LI SOUND 0500            59      50/ 16/ 17   N/A           1/ 3
CENTRAL LI SOUND 0400            59 64   50/ 14/ 17   N/A           1/ 3
EASTERN LI SOUND 0400            60 64   40/ 14/ 19   N/A
ROBBINS REEF     0500            57     360/ 11/ 12 1011.1
$$


>>>>>>>>>>>>>>>>>>>>>>>>>>>> KEY <<<<<<<<<<<<<<<<<<<<<<<<<<<
>                                                          <
>     SKY/WX - SKY CONDITION/PRESENT WEATHER               <
>     TMP    - TEMPERATURE IN FAHRENHEIT                   <
>     DP     - DEWPOINT IN FAHRENHEIT                      <
>     RH     - RELATIVE HUMIDITY IN PERCENT                <
>     WIND   - DIRECTION AND SPEED IN MPH                  <
>     PRES   - MEAN SEA LEVEL PRESSURE IN INCHES OF HG     <
>     WCI    - WIND CHILL INDEX                            <
>     VSB    - VISIBILITY IN MILES                         <
>     HX     - HEAT INDEX                                  <
>     TC     - TEMPERATURE IN CELSIUS                      <
>     VRB    - VARIABLE WIND DIRECTION                     <
>                                                          <
>>>>>>>>>>>>>>>>>>>>>>>>>>>> KEY <<<<<<<<<<<<<<<<<<<<<<<<<<<





USA.gov is the U.S. government's official web portal to all federal, state and local government web resources and services.